Simultaneous Nadir Overpasses (SNOs) Predictions

Prediction of SNOs between METOP-A and NOAA-19 Satellite Orbit:

Table of predicted SNOs for the next 14.0 days since TLE Epoch: 12/28/2014
Index Date (METOP-A) Time (METOP-A) Lat,Lon (METOP-A) SZA (METOP-A ) Date (NOAA-19) Time (NOAA-19) Lat,Lon (NOAA-19) SZA (NOAA-19 ) Distance(km) Time Diff (sec)
1 12/31/2014 12:19:26 74.93, -7.76 97.95 12/31/2014 12:18:17 74.98, -10.04 98.05 65.94 69
2 12/31/2014 13:10:16 -74.53, 158.47 82.44 12/31/2014 13:09:11 -74.55, 158.41 82.41 3.04 65
3 12/31/2014 14:00:56 74.52, -34.22 97.56 12/31/2014 14:00:10 74.50, -34.19 97.54 2.39 46
4 12/31/2014 14:51:38 -74.51, 133.07 82.46 12/31/2014 14:51:13 -74.50, 133.04 82.47 0.94 25
5 12/31/2014 15:42:18 74.50, -59.62 97.53 12/31/2014 15:42:13 74.50, -59.69 97.53 1.95 5
6 12/31/2014 16:33:00 -74.48, 107.67 82.49 12/31/2014 16:33:15 -74.45, 107.67 82.53 3.70 15
7 12/31/2014 17:23:40 74.47, -85.02 97.50 12/31/2014 17:24:15 74.44, -85.06 97.47 3.42 35
8 12/31/2014 18:14:22 -74.46, 82.27 82.52 12/31/2014 18:15:18 -74.45, 82.17 82.53 3.29 56
9 12/31/2014 19:05:03 74.40,-110.55 97.43 12/31/2014 19:06:17 74.39,-110.43 97.41 3.83 74
10 01/10/2015 21:29:50 -74.72, 34.08 83.41 01/10/2015 21:28:37 -74.75, 33.18 83.35 26.49 73
11 01/10/2015 22:20:33 74.57,-159.01 96.45 01/10/2015 22:19:36 74.57,-159.10 96.46 2.87 57
12 01/10/2015 23:11:15 -74.55, 8.28 83.58 01/10/2015 23:10:36 -74.55, 8.21 83.57 2.28 39
13 01/11/2015 00:01:55 74.54, 175.59 96.41 01/11/2015 00:01:38 74.52, 175.53 96.40 2.70 17
14 01/11/2015 00:52:37 -74.53, -17.12 83.61 01/11/2015 00:52:38 -74.50, -17.17 83.63 3.26 1
15 01/11/2015 01:43:18 74.47, 150.06 96.34 01/11/2015 01:43:40 74.47, 150.15 96.34 2.99 22
16 01/11/2015 02:34:00 -74.46, -42.65 83.69 01/11/2015 02:34:40 -74.45, -42.54 83.70 3.25 40
17 01/11/2015 03:24:40 74.45, 124.65 96.30 01/11/2015 03:25:43 74.47, 124.65 96.32 2.74 63
18 01/11/2015 04:15:27 -74.19, -68.68 83.95 01/11/2015 04:16:38 -74.21, -67.40 83.97 38.64 71




NCC Satellite Simultaneous Nadir Overpasses
